Location: Albany
(42.6526°N, 73.7562°W)
Time: 14:41:06
(UTC+00:00)

Cosmos 1464 Rocket - Pass Details

Date: 19 November 2019
Orbit: 951 x 1002 km, 82.9° (Epoch: 10 December)

Event Time Altitude Azimuth Distance (km) Brightness Sun altitude
Rises 22:53:25 0° 349° (N) 3,648 7.0 -15.4°
Reaches altitude 10° 22:55:57 10° 347° (NNW) 2,694 6.3 -15.9°
Maximum altitude 23:02:01 65° 267° (W) 1,040 4.4 -17.0°
Drops below altitude 10° 23:08:02 10° 186° (S) 2,669 6.5 -18.1°
Sets 23:10:32 0° 184° (S) 3,612 7.2 -18.5°
